Logo des 100 km de Steenwerck

Accueil

Marque page aux couleurs de l'association

Classement pour le 100km course en 1999 (51 participants)

Position Nom Prénom Distance Temps
1 NEPLE Jean-nicolas 100,00 km 07:21:52
2 DEBAVELAERE Jean-Luc 100,00 km 08:10:30
3 DELABY Yves 100,00 km 08:30:43
4 DEGROOTE Michel 100,00 km 08:47:40
5 HERMAN Philippe 100,00 km 09:04:22
6 VANGRAEFSCHEPE Philippe 100,00 km 09:10:44
7 NEVEU Jacques 100,00 km 09:19:20
8 MARTEL Claude 100,00 km 09:34:59
9 GAYMAY Jacques 100,00 km 09:37:18
10 BECCARIA Jean 100,00 km 09:37:48
11 DIGIRONIMO André 100,00 km 09:41:48
12 JEGOU Marie 100,00 km 09:50:46
13 FRANCOIS Guy 100,00 km 10:03:34
14 VASSEUR Patrick 100,00 km 10:03:50
15 DEMARETS Joël 100,00 km 10:04:35
16 PICAVEZ Bernard 100,00 km 10:05:42
17 ROBERT Rodrigue 100,00 km 10:06:32
18 DETREZ Fréderic 100,00 km 10:08:41
19 BLASZKOWSKI Béatrice 100,00 km 10:11:55
20 CREPIN Dominique 100,00 km 10:15:15
21 MINET Dominique 100,00 km 10:19:45
22 LIBRALESSO Jean-Marie 100,00 km 10:22:48
23 LOOTEN Alain 100,00 km 10:31:51
24 D'AMORE Pierre 100,00 km 10:40:43
25 PREUX Emmanuel 100,00 km 10:44:00
26 ADAM Dominique 100,00 km 10:48:38
27 BROWORSKI Eric 100,00 km 10:53:39
28 HYRA Jean-Marc 100,00 km 11:07:59
29 BARBERY Gilles 100,00 km 11:08:29
30 DEVOS Bernard 100,00 km 11:11:01
31 FOURNIER Olivier 100,00 km 11:27:38
32 LEPINAY Joêl 100,00 km 11:31:42
33 ROY Philippe 100,00 km 11:50:19
34 MARTINEZ Jean 100,00 km 12:11:47
35 DUBOIS Syvain 100,00 km 12:39:46
36 MARIE Ghislain 91,71 km 12:17:32
37 VANDEWALLE Jackie 75,64 km 06:59:34
38 METIER Jean-René 75,64 km 08:01:37
39 POISSON Fréderic 75,64 km 08:31:10
40 VASSEUR Jean-Robert 75,64 km 09:35:39
41 HARS Bruno 67,35 km 05:15:25
42 FALLET Denis 58,01 km 06:13:25
43 BAFCOP Nicolas 58,01 km 06:28:16
44 PARMENTIER Bruno 58,01 km 06:30:57
45 CAUSSE Claudine 58,01 km 08:59:42
46 BAS Gilbert 51,27 km 03:50:35
47 GODART Bertrand 51,27 km 05:08:50
48 BALSE Pascal 51,27 km 05:25:07
49 DELIERS Didier 51,27 km 05:42:09
50 MAGNIER Joël 51,27 km 07:16:08
51 GOBET Bernard 18,62 km 01:29:56

Connexion au site

Vous n'êtes pas connecté sur le site.
Vous connecter...

Recherche

Cliquer ici pour effectuer une recherche d'un coureur sur toutes les courses depuis 1995.

Années dispos

Cliquer sur une année pour y chercher un concurrent et afficher un récapitulatif des courses :